| time (UTC) | temp F | wind direction | speed MPH | gust MPH | rain 1hr in | rain 24hr in | rain mn in | humidity % | barometer mb |
| 20260506184515 | 57 | 39 | 3.0 | 10.0 | 0.00 | 0.68 | 0.02 | 73 | 1018.5 |
| 20260506183107 | 57 | 49 | 3.0 | 12.0 | 0.00 | 0.68 | 0.02 | 75 | 1018.1 |
| 20260506181558 | 56 | 38 | 3.0 | 14.0 | 0.00 | 0.68 | 0.02 | 75 | 1017.9 |
| 20260506180056 | 56 | 360 | 10.0 | 16.0 | 0.00 | 0.68 | 0.02 | 76 | 1018.1 |
| 20260506174601 | 56 | 26 | 4.0 | 11.0 | 0.00 | 0.68 | 0.02 | 75 | 1017.9 |
| 20260506173125 | 55 | 5 | 6.0 | 15.0 | 0.00 | 0.68 | 0.02 | 77 | 1018.3 |
| 20260506171553 | 54 | 5 | 8.0 | 17.0 | 0.00 | 0.68 | 0.02 | 77 | 1018.9 |
| 20260506170052 | 55 | 33 | 8.0 | 19.0 | 0.00 | 0.68 | 0.02 | 78 | 1018.7 |
| 20260506164551 | 55 | 30 | 4.0 | 10.0 | 0.00 | 0.68 | 0.02 | 77 | 1018.9 |
| 20260506163053 | 55 | 41 | 4.0 | 13.0 | 0.00 | 0.68 | 0.02 | 79 | 1018.1 |
| 20260506161548 | 55 | 45 | 6.0 | 15.0 | 0.00 | 0.68 | 0.02 | 79 | 1017.7 |
| 20260506160047 | 54 | 32 | 4.0 | 13.0 | 0.00 | 0.68 | 0.02 | 80 | 1018.0 |
| 20260506154544 | 53 | 41 | 3.0 | 14.0 | 0.00 | 0.68 | 0.02 | 79 | 1018.5 |
| 20260506153044 | 54 | 347 | 7.0 | 15.0 | 0.00 | 0.68 | 0.02 | 82 | 1018.1 |
| 20260506151539 | 53 | 38 | 8.0 | 15.0 | 0.00 | 0.68 | 0.02 | 83 | 1017.9 |
| 20260506150045 | 52 | 355 | 9.0 | 13.0 | 0.00 | 0.68 | 0.02 | 85 | 1018.4 |
| 20260506144553 | 52 | 34 | 11.0 | 18.0 | 0.00 | 0.68 | 0.02 | 85 | 1018.3 |
| 20260506143036 | 51 | 344 | 11.0 | 18.0 | 0.00 | 0.68 | 0.02 | 86 | 1017.8 |
| 20260506141528 | 51 | 53 | 8.0 | 13.0 | 0.00 | 0.68 | 0.02 | 87 | 1017.9 |
| 20260506140040 | 50 | 355 | 5.0 | 13.0 | 0.00 | 0.68 | 0.02 | 88 | 1017.7 |
| 20260506134530 | 50 | 348 | 5.0 | 15.0 | 0.00 | 0.72 | 0.02 | 89 | 1017.7 |
| 20260506133020 | 50 | 18 | 2.0 | 13.0 | 0.00 | 0.72 | 0.02 | 89 | 1017.1 |
| 20260506131527 | 50 | 44 | 3.0 | 15.0 | 0.00 | 0.72 | 0.02 | 90 | 1016.9 |
| 20260506130018 | 49 | 49 | 2.0 | 12.0 | 0.00 | 0.72 | 0.02 | 90 | 1017.0 |
| 20260506124515 | 49 | 65 | 5.0 | 11.0 | 0.00 | 0.90 | 0.02 | 90 | 1016.5 |
| 20260506123019 | 48 | 59 | 3.0 | 10.0 | 0.00 | 0.90 | 0.02 | 91 | 1016.1 |
| 20260506121513 | 48 | 5 | 3.0 | 11.0 | 0.00 | 0.90 | 0.02 | 91 | 1016.3 |
| 20260506120020 | 48 | 19 | 4.0 | 13.0 | 0.00 | 0.90 | 0.02 | 91 | 1015.9 |
| 20260506114517 | 48 | 34 | 2.0 | 6.0 | 0.00 | 0.90 | 0.02 | 92 | 1015.7 |
| 20260506113007 | 48 | 39 | 3.0 | 7.0 | 0.00 | 0.90 | 0.02 | 92 | 1015.6 |
| 20260506111506 | 48 | 49 | 2.0 | 9.0 | 0.00 | 0.90 | 0.02 | 92 | 1015.4 |
| 20260506110004 | 48 | 49 | 3.0 | 9.0 | 0.00 | 0.90 | 0.02 | 92 | 1014.9 |
| 20260506104504 | 48 | 36 | 4.0 | 12.0 | 0.00 | 0.90 | 0.02 | 92 | 1015.2 |
| 20260506103003 | 48 | 41 | 6.0 | 16.0 | 0.00 | 0.90 | 0.02 | 92 | 1015.1 |
| 20260506101602 | 48 | 23 | 6.0 | 14.0 | 0.00 | 0.90 | 0.02 | 92 | 1014.6 |
| 20260506100108 | 48 | 40 | 5.0 | 15.0 | 0.00 | 0.90 | 0.02 | 92 | 1014.8 |
| 20260506094604 | 48 | 13 | 6.0 | 15.0 | 0.00 | 0.90 | 0.02 | 92 | 1014.5 |
| 20260506093055 | 48 | 31 | 11.0 | 17.0 | 0.00 | 0.90 | 0.02 | 92 | 1014.6 |
| 20260506091553 | 48 | 40 | 4.0 | 14.0 | 0.00 | 0.90 | 0.02 | 93 | 1014.7 |
| 20260506090051 | 48 | 47 | 5.0 | 16.0 | 0.00 | 0.90 | 0.02 | 93 | 1014.7 |
| 20260506084552 | 48 | 19 | 6.0 | 15.0 | 0.00 | 0.90 | 0.02 | 93 | 1013.8 |
| 20260506083053 | 49 | 341 | 10.0 | 21.0 | 0.00 | 0.90 | 0.02 | 93 | 1013.7 |
| 20260506081600 | 49 | 351 | 10.0 | 19.0 | 0.00 | 0.90 | 0.02 | 94 | 1013.5 |
| 20260506073038 | 49 | 330 | 6.0 | 13.0 | 0.00 | 0.90 | 0.02 | 95 | 1013.1 |
| 20260506071539 | 49 | 45 | 4.0 | 9.0 | 0.00 | 0.90 | 0.02 | 95 | 1013.1 |
| 20260506061531 | 49 | 338 | 11.0 | 19.0 | 0.01 | 0.90 | 0.02 | 96 | 1013.7 |
| 20260506044515 | 50 | 5 | 7.0 | 16.0 | 0.05 | 0.86 | 0.86 | 96 | 1011.9 |
| 20260506043013 | 50 | 30 | 7.0 | 16.0 | 0.12 | 0.83 | 0.83 | 95 | 1011.9 |
| 20260506041512 | 51 | 5 | 7.0 | 21.0 | 0.13 | 0.83 | 0.83 | 96 | 1011.7 |
| 20260506040010 | 51 | 52 | 8.0 | 16.0 | 0.13 | 0.83 | 0.83 | 95 | 1011.6 |
| 20260506034508 | 51 | 53 | 5.0 | 16.0 | 0.11 | 0.81 | 0.81 | 95 | 1011.4 |
| 20260506033006 | 52 | 45 | 7.0 | 19.0 | 0.00 | 0.70 | 0.70 | 95 | 1012.0 |
| 20260506031615 | 52 | 360 | 13.0 | 22.0 | 0.00 | 0.70 | 0.70 | 95 | 1011.6 |
| 20260506030100 | 52 | 347 | 11.0 | 19.0 | 0.00 | 0.70 | 0.70 | 96 | 1011.4 |
| 20260506024559 | 52 | 336 | 10.0 | 20.0 | 0.01 | 0.70 | 0.70 | 96 | 1011.2 |
| 20260506023101 | 53 | 329 | 9.0 | 19.0 | 0.03 | 0.70 | 0.70 | 96 | 1011.3 |
| 20260506021655 | 54 | 348 | 10.0 | 18.0 | 0.05 | 0.70 | 0.70 | 97 | 1011.0 |
| 20260506020051 | 54 | 326 | 14.0 | 18.0 | 0.06 | 0.70 | 0.70 | 97 | 1010.7 |
| 20260506014549 | 54 | 5 | 11.0 | 18.0 | 0.08 | 0.69 | 0.69 | 97 | 1010.1 |
| 20260506013050 | 54 | 360 | 10.0 | 18.0 | 0.08 | 0.67 | 0.67 | 97 | 1009.7 |
| 20260506011545 | 55 | 5 | 9.0 | 16.0 | 0.06 | 0.65 | 0.65 | 97 | 1009.0 |
| 20260506010054 | 56 | 348 | 8.0 | 15.0 | 0.05 | 0.64 | 0.64 | 97 | 1008.7 |
| 20260506004541 | 56 | 355 | 13.0 | 20.0 | 0.03 | 0.61 | 0.61 | 97 | 1008.8 |
| 20260506003037 | 58 | 346 | 8.0 | 15.0 | 0.03 | 0.59 | 0.59 | 96 | 1008.5 |
| 20260506001534 | 65 | 317 | 7.0 | 12.0 | 0.05 | 0.59 | 0.59 | 98 | 1008.2 |
| 20260506000033 | 65 | 193 | 9.0 | 16.0 | 0.06 | 0.59 | 0.59 | 98 | 1007.8 |
| 20260505234534 | 65 | 175 | 10.0 | 15.0 | 0.08 | 0.57 | 0.57 | 98 | 1008.3 |
| 20260505233029 | 65 | 201 | 10.0 | 17.0 | 0.07 | 0.56 | 0.56 | 98 | 1008.6 |
| 20260505231528 | 65 | 179 | 11.0 | 17.0 | 0.08 | 0.54 | 0.54 | 98 | 1008.5 |
| 20260505230037 | 65 | 184 | 10.0 | 15.0 | 0.10 | 0.53 | 0.53 | 97 | 1008.4 |
| 20260505224525 | 64 | 180 | 6.0 | 10.0 | 0.09 | 0.50 | 0.50 | 97 | 1008.4 |
| 20260505223025 | 64 | 178 | 6.0 | 12.0 | 0.10 | 0.49 | 0.49 | 97 | 1008.6 |
| 20260505221524 | 64 | 173 | 7.0 | 13.0 | 0.09 | 0.46 | 0.46 | 97 | 1008.8 |
| 20260505220026 | 64 | 180 | 7.0 | 14.0 | 0.09 | 0.43 | 0.43 | 97 | 1008.7 |
| 20260505214522 | 64 | 177 | 7.0 | 12.0 | 0.10 | 0.41 | 0.41 | 97 | 1008.7 |
| 20260505213026 | 64 | 180 | 6.0 | 11.0 | 0.10 | 0.39 | 0.39 | 96 | 1009.0 |
| 20260505211521 | 64 | 185 | 8.0 | 12.0 | 0.09 | 0.37 | 0.37 | 96 | 1009.2 |
| 20260505210019 | 64 | 179 | 8.0 | 14.0 | 0.07 | 0.34 | 0.34 | 96 | 1009.3 |
| 20260505204518 | 64 | 182 | 11.0 | 16.0 | 0.05 | 0.31 | 0.31 | 95 | 1009.3 |
| 20260505203027 | 64 | 179 | 11.0 | 18.0 | 0.03 | 0.28 | 0.28 | 95 | 1009.3 |
| 20260505201518 | 64 | 185 | 11.0 | 18.0 | 0.03 | 0.28 | 0.28 | 95 | 1009.4 |
| 20260505200016 | 64 | 227 | 11.0 | 22.0 | 0.02 | 0.27 | 0.27 | 94 | 1009.7 |
| 20260505194516 | 63 | 189 | 12.0 | 19.0 | 0.02 | 0.26 | 0.26 | 95 | 1009.7 |
| 20260505193013 | 63 | 200 | 9.0 | 17.0 | 0.03 | 0.26 | 0.26 | 96 | 1009.7 |
| 20260505191513 | 63 | 204 | 10.0 | 21.0 | 0.03 | 0.25 | 0.25 | 96 | 1009.9 |
| 20260505190015 | 63 | 183 | 10.0 | 18.0 | 0.03 | 0.25 | 0.25 | 95 | 1009.9 |